Regional Weather Roundup
Issued by NWS

Home | Current Version | Previous Version | Text Only | Print | Product List | Glossary On
Versions: 1 2 3 4 5 6 7 8 9 10 11 12 13 14 15 16 17 18 19 20 21 22 23 24 25 26 27 28 29 30 31 32 33 34 35 36 37 38 39 40 41 42 43 44 45 46 47 48 49 50
000
ASUS46 KSTO 042204
RWRCA

NORTHERN AND CENTRAL CA REGIONAL WEATHER ROUNDUP
NATIONAL WEATHER SERVICE SACRAMENTO CA
300 PM PDT SAT JUL 04 2015

NOTE: FAIR INDICATES FEW OR NO CLOUDS BELOW 12,000 FEET WITH NO
SIGNIFICANT WEATHER AND/OR OBSTRUCTIONS TO VISIBILITY.

CAZ001-003-042300-
NORTHWEST AREA

CITY           SKY/WX    TMP DP  RH WIND       PRES   REMARKS
CRESCENT CITY  MOSUNNY   61  55  81 S8        29.88S
UKIAH          SUNNY    101  54  20 SW12G18   29.76F HX  99
$$

CAZ006-505>513-042300-
BAY AREA

CITY           SKY/WX    TMP DP  RH WIND       PRES   REMARKS
SANTA ROSA     MOSUNNY   80  57  45 S13       29.81F
SAN RAFAEL     N/A       73  MM  MM MISG
NAPA           SUNNY     76  59  55 S20       29.82F
CONCORD        SUNNY     90  55  30 W12       29.79F
OAKLAND CITY   N/A       71  MM  MM MISG
OAKLAND        MOSUNNY   69  57  65 NW20      29.85F
SAN FRAN CITY  N/A       65  MM  73 MISG
SAN FRAN ARPT  MOSUNNY   70  57  63 W25G32    29.84F
LIVERMORE      SUNNY     92  51  24 W14       29.80F
HAYWARD        SUNNY     74  59  59 NW15      29.84F
REDWOOD CITY   N/A       MM  MM  MM MISG
MOFFETT ARPT   SUNNY     75  61  61 N14       29.84F
SAN JOSE ARPT  MOSUNNY   78  61  55 NW13      29.82F
$$
CAZ034-037-514>518-042300-
CENTRAL COAST

CITY           SKY/WX    TMP DP  RH WIND       PRES   REMARKS
WATSONVILLE    PTSUNNY   67  58  72 SW12      29.90S
SALINAS        SUNNY     69  57  65 W17       29.88S
MONTEREY       MOSUNNY   68  57  68 SW9G17    29.90S
SAN LUIS OBISP MOSUNNY   74  57  55 W9        29.89S
SANTA MARIA    MOSUNNY   74  58  57 NW14      29.91S
$$
CAZ015-016-042300-
NORTHERN SACRAMENTO VALLEY

CITY           SKY/WX    TMP DP  RH WIND       PRES   REMARKS
REDDING        MOSUNNY  102  59  24 VRB7      29.71F HX 102
RED BLUFF      SUNNY    101  59  24 S13G18    29.72F HX 101
OROVILLE       MOSUNNY  100  60  26 S8        29.75F HX 100
$$
CAZ016>018-042300-
SOUTHERN SACRAMENTO VALLEY

CITY           SKY/WX    TMP DP  RH WIND       PRES   REMARKS
AUBURN         MOSUNNY   95  61  31 W9        29.83F HX  95
BEALE AFB      MOSUNNY   98  62  30 SW8       29.72F HX  99
LINCOLN        FAIR      99  55  23 W8        29.73F HX  97
MARYSVILLE     SUNNY     99  60  27 SW7       29.73F HX  99
SAC INTL ARPT  MOSUNNY   99  61  28 SW7       29.72F HX  99
MATHER AIRPORT NOT AVBL
DOWNTOWN SAC   N/A       99  MM  MM MISG
SAC EXEC ARPT  SUNNY     98  61  29 SW12      29.74F HX  98
VACAVILLE      SUNNY    100  60  26 S10       29.76F HX 100
TRAVIS AFB     SUNNY     90  59  35 SW23      29.74F
$$
CAZ019>021-042300-
SAN JOAQUIN VALLEY

CITY           SKY/WX    TMP DP  RH WIND       PRES   REMARKS
STOCKTON       SUNNY     99  57  24 W14       29.74F HX  98
MODESTO        SUNNY     98  56  24 NW8       29.74F HX  96
MERCED         SUNNY     99  59  26 NW14      29.73F HX  99
LEMOORE        SUNNY    101  54  20 MISG      29.74F HX  99
FRESNO         MOSUNNY  100  54  21 W5        29.74F HX  98
HANFORD        SUNNY    100  55  22 W9        29.74F HX  98
PORTERVILLE    SUNNY     99  57  25 NW9       29.76F HX  97
BAKERSFIELD    SUNNY     99  49  18 W12       29.75F HX  96
$$
CAZ011-012-071-042300-
NORTHERN MOUNTAINS

CITY           SKY/WX    TMP DP  RH WIND       PRES   REMARKS
MOUNT SHASTA   SUNNY     93  56  28 CALM      29.92F HX  91
ALTURAS        MOSUNNY   92  44  19 W9        29.96F
$$
CAZ011-012-071-042300-
SIERRA NEVADA MTNS

CITY           SKY/WX    TMP DP  RH WIND       PRES   REMARKS
BLUE CANYON    CLOUDY    75  52  44 CALM      30.12F
TRUCKEE        CLOUDY    64  55  72 CALM      30.19F
TAHOE VLY ARPT CLOUDY    69  53  56 SW3       30.21R
MAMMOTH LAKES  FAIR      75  41  29 E9        30.24S
$$




USA.gov is the U.S. government's official web portal to all federal, state and local government web resources and services.